Location: *
(52.2090°N, 4.1550°W)
Time: 20:03:42
(UTC+00:00)

Cosmos 1500 Rocket - Pass Details

Date: 19 July 2019
Orbit: 602 x 632 km, 82.5° (Epoch: 25 August)

Event Time Altitude Azimuth Distance (km) Brightness Sun altitude
Exits shadow 21:31:49 - 180° (S) 2,619 6.3 -8.1°
Reaches altitude 10° 21:33:20 10° 178° (S) 2,012 5.7 -8.2°
Maximum altitude 21:37:45 67° 97° (E) 692 3.6 -8.6°
Drops below altitude 10° 21:42:13 10° 15° (NNE) 2,027 6.7 -9.1°
Sets 21:44:29 0° 13° (NNE) 2,938 7.7 -9.3°
